Location: Unspecified
(35.7250°N, 0.0000°E)
Time: 08:49:44
(UTC+00:00)

Explorer 7 - Pass Details

Date: 27 June 2019
Orbit: 485 x 680 km, 50.3° (Epoch: 24 August)

Event Time Altitude Azimuth Distance (km) Brightness Sun altitude
Rises 07:22:42 0° 260° (W) 2,667 9.8 29.0°
Reaches altitude 10° 07:25:06 10° 272° (W) 1,812 9.0 29.5°
Maximum altitude 07:28:41 28° 333° (NNW) 1,080 8.4 30.2°
Drops below altitude 10° 07:32:30 10° 33° (NNE) 1,925 10.3 31.0°
Sets 07:35:08 0° 45° (NE) 2,869 11.2 31.5°
